Tracking 19146 objects as of 24-Apr-2018
HD Live streaming from Space Station
objects crossing your sky now

IRIDIUM 19


IRIDIUM 19 is no longer on orbit
IRIDIUM 19 is classified as:


NORAD ID: 24965
Int'l Code: 1997-056A
Perigee: N/A
Apogee: N/A
Inclination: N/A
Period: N/A
Semi major axis: N/A
RCS: N/A
Launch date: September 27, 1997
Source: United States (US)
Launch site: AIR FORCE WESTERN TEST RANGE (AFWTR)
Decay date: 2018-04-07
aabbcc
Your satellite tracking list
Your tracking list is empty




NASA's NSSDC Master Catalog

Two Line Element Set (TLE):
1 24965U 97056A   18097.22249121  .15690194 -15286-5  28846-3 0  9995
2 24965  86.3570 184.0870 0015366  83.3282 277.2194 16.46396628 76277
Source of the keplerian elements: AFSPC